Regional Weather Roundup
Issued by NWS

Home | Current Version | Previous Version | Text Only | Print | Product List | Glossary On
Versions: 1 2 3 4 5 6 7 8 9 10 11 12 13 14 15 16 17 18 19 20 21 22 23 24 25 26 27 28
000
ASUS45 KREV 072110
RWRNV
NEVADA REGIONAL WEATHER ROUNDUP
NATIONAL WEATHER SERVICE RENO NV
100 PM PST WED DEC 07 2016

NOTE: "FAIR" INDICATES FEW OR NO CLOUDS BELOW 12,000 FEET WITH NO
SIGNIFICANT WEATHER AND/OR OBSTRUCTIONS TO VISIBILITY.

NVZ001-003-004-072200-
WESTERN NEVADA

CITY           SKY/WX    TMP DP  RH WIND       PRES   REMARKS
RENO           PTSUNNY   36  16  44 E6        30.12F
CARSON CITY    FAIR      34  16  47 E12       30.14F
MINDEN         PTSUNNY   32  16  51 N6        30.13F
PYRAMID LAKE     N/A     34 N/A N/A SE14        N/A
FALLON         PTSUNNY   34  16  47 E5        30.18F
LOVELOCK       SUNNY     32  17  54 N3        30.19F
HAWTHORNE        N/A    N/A N/A N/A MISG        N/A
$$

NVZ002-CAZ072-073-072200-
NORTHERN AND CENTRAL SIERRA

CITY           SKY/WX    TMP DP  RH WIND       PRES   REMARKS
S. LAKE TAHOE  CLOUDY    32  13  45 NE6       30.04F
SQUAW VLY 8000   N/A     32  -2  23 S9          N/A
SUSANVILLE     PTSUNNY   32  18  55 CALM      30.15F
MAMMOTH LAKES  CLOUDY    36   8  31 SE6       30.05F
BRIDGEPORT       N/A     39   9  29 E5        30.00F
$$

NVZ030-031-036-072200-
NORTHERN NEVADA

CITY           SKY/WX    TMP DP  RH WIND       PRES   REMARKS
ELKO           SUNNY     27   5  39 VRB3      30.19F
WINNEMUCCA     MOSUNNY   27  17  66 NE7       30.21F
WENDOVER       SUNNY     27   7  43 SE3       30.28F
$$

NVZ035-037-072200-
CENTRAL NEVADA

CITY           SKY/WX    TMP DP  RH WIND       PRES   REMARKS
ELY            SUNNY     27  -1  30 N6        30.13F
EUREKA           N/A     26   6  42 N5        30.14F
$$

NVZ013-014-072200-
SOUTH CENTRAL NEVADA

CITY           SKY/WX    TMP DP  RH WIND       PRES   REMARKS
TONOPAH        SUNNY     33   9  36 CALM      30.13F
$$

NVZ017-020-022-072200-
SOUTHERN NEVADA

CITY           SKY/WX    TMP DP  RH WIND       PRES   REMARKS
LAS VEGAS      PTSUNNY   53   6  15 NE9       30.14F
N. LAS VEGAS   SUNNY     53   6  15 VRB7      30.14F
NELLIS AFB     SUNNY     53   5  14 N15       30.14F
HENDERSON      SUNNY     51   8  17 N10G16    30.15F
MERCURY        MOSUNNY   48  10  21 NE8       30.12F
$$




USA.gov is the U.S. government's official web portal to all federal, state and local government web resources and services.